Tracking 27401 objects as of 3-Jun-2023
HD Live streaming from Space Station
objects crossing your sky now

STARLINK-1513

Track STARLINK-1513 now!
10-day predictions
STARLINK-1513 is classified as:


NORAD ID: 45786
Int'l Code: 2020-038BJ
Perigee: 553.3 km
Apogee: 555.5 km
Inclination: 53.1 °
Period: 95.6 minutes
Semi major axis: 6925 km
RCS: Unknown
Launch date: June 13, 2020
Source: United States (US)
Launch site: AIR FORCE EASTERN TEST RANGE (AFETR)
Your satellite tracking list
Your tracking list is empty




NASA's NSSDC Master Catalog

Two Line Element Set (TLE):
1 45786U 20038BJ  23153.72092143  .00009019  00000-0  62375-3 0  9990
2 45786  53.0549  55.0388 0001553  94.1579 265.9587 15.06390513164383
Source of the keplerian elements: AFSPC